Simultaneous Nadir Overpasses (SNOs) Predictions

Prediction of SNOs between GOES-17 and AQUA Satellite Orbit:

Table of predicted SNOs for the next 14.0 days since TLE Epoch: 11/7/2020
Index Date Time (GOES-17) GOES-17 Lat,Lon AQUA Lat,Lon Distance(km) Time Diff (sec)
1 11/08/2020 22:42:28 -0.01,-137.23 0.14,-136.44 89.28 80
2 11/09/2020 11:01:04 0.01,-137.23 0.96,-141.60 497.17 80
3 11/10/2020 22:30:17 -0.01,-137.23 0.81,-133.49 425.30 80
4 11/11/2020 10:48:53 0.01,-137.23 0.29,-138.65 161.28 80
5 11/13/2020 10:39:21 0.01,-137.22 -0.33,-135.69 174.19 80
6 11/13/2020 22:58:04 -0.01,-137.22 -0.81,-140.87 416.61 80
7 11/15/2020 22:45:52 -0.01,-137.20 -0.19,-137.92 82.14 80
8 11/17/2020 22:36:20 -0.01,-137.17 0.44,-134.96 251.64 80
9 11/18/2020 10:54:55 0.01,-137.17 0.65,-140.12 335.36 80
10 11/20/2020 10:42:43 0.00,-137.14 0.02,-137.16 2.39 80
